FW5704 Weather Reports


Display with metric or nautical units.
time (UTC)temp
F
wind
direction
speed
MPH
gust
MPH
rain 1hr
in
rain 24hr
in
rain mn
in
humidity
%
barometer
mb
20260507020535 61 0 0.0 0.0 0.03 0.58 0.58 96 1014.1
20260507020103 61 0 0.0 0.0 0.03 0.58 0.58 96 1013.9
20260507015534 61 0 0.0 0.0 0.04 0.58 0.58 96 1013.7
20260507015034 61 0 0.0 0.0 0.03 0.58 0.58 96 1013.9
20260507014554 61 0 0.0 0.0 0.03 0.58 0.58 96 1014.0
20260507014034 61 0 0.0 0.0 0.03 0.58 0.58 96 1014.3
20260507013536 61 0 0.0 0.0 0.04 0.58 0.58 96 1014.2
20260507013049 61 0 0.0 0.0 0.03 0.57 0.57 96 1014.4
20260507012537 61 0 0.0 0.0 0.03 0.57 0.57 96 1014.4
20260507012037 61 0 0.0 0.0 0.04 0.57 0.57 96 1014.2
20260507011546 61 0 0.0 0.0 0.04 0.57 0.57 96 1013.9
20260507011033 61 0 0.0 3.0 0.03 0.56 0.56 96 1014.0
20260507010534 61 0 0.0 3.0 0.04 0.56 0.56 96 1015.0
20260507010047 61 262 1.0 3.0 0.04 0.56 0.56 96 1016.1
20260507005534 61 254 0.0 3.0 0.03 0.55 0.55 96 1014.9
20260507005035 61 0 0.0 3.0 0.04 0.55 0.55 96 1014.9
20260507004553 61 263 0.0 4.0 0.04 0.55 0.55 96 1015.0
20260507004035 61 0 0.0 4.0 0.04 0.55 0.55 96 1014.5
20260507003534 61 257 1.0 4.0 0.04 0.54 0.54 96 1015.0
20260507003046 61 256 0.0 2.0 0.04 0.54 0.54 95 1014.8
20260507002534 61 0 0.0 2.0 0.04 0.54 0.54 95 1014.8
20260507002034 61 0 0.0 3.0 0.04 0.52 0.52 95 1014.6
20260507001553 61 256 1.0 3.0 0.04 0.52 0.52 96 1015.0
20260507001033 61 0 0.0 3.0 0.04 0.52 0.52 95 1014.7
20260507000534 61 265 1.0 3.0 0.04 0.52 0.52 96 1014.6
20260507000049 61 0 0.0 0.0 0.04 0.52 0.52 96 1014.3
20260506235535 61 0 0.0 0.0 0.04 0.52 0.52 96 1014.1
20260506235037 62 0 0.0 0.0 0.04 0.51 0.51 96 1014.2
20260506234552 61 0 0.0 2.0 0.04 0.51 0.51 96 1013.7
20260506234033 62 0 0.0 2.0 0.05 0.51 0.51 95 1014.1
20260506233534 62 59 0.0 3.0 0.04 0.50 0.50 95 1013.8
20260506233045 62 0 0.0 4.0 0.04 0.50 0.50 95 1013.5
20260506232534 62 59 2.0 4.0 0.05 0.50 0.50 95 1012.8
20260506232034 62 263 1.0 4.0 0.04 0.49 0.49 95 1014.2
20260506231550 62 298 1.0 4.0 0.04 0.49 0.49 95 1013.6
20260506231034 62 263 0.0 4.0 0.05 0.49 0.49 96 1014.6
20260506230533 62 0 2.0 4.0 0.04 0.48 0.48 96 1014.6
20260506230058 62 0 0.0 1.0 0.05 0.48 0.48 96 1013.9
20260506225535 62 0 0.0 2.0 0.05 0.48 0.48 96 1013.8
20260506225034 62 0 0.0 2.0 0.04 0.47 0.47 96 1013.8
20260506224545 62 0 0.0 2.0 0.05 0.47 0.47 96 1014.2
20260506224037 62 0 0.0 1.0 0.04 0.46 0.46 95 1014.4
20260506223536 62 0 0.0 1.0 0.04 0.46 0.46 95 1014.5
20260506223053 62 0 0.0 1.0 0.05 0.46 0.46 95 1014.4
20260506222533 62 0 0.0 2.0 0.04 0.45 0.45 95 1014.5
20260506222033 62 0 0.0 2.0 0.04 0.45 0.45 95 1014.6
20260506221544 62 0 1.0 2.0 0.05 0.45 0.45 95 1014.6
20260506221036 62 0 0.0 0.0 0.04 0.44 0.44 95 1014.5
20260506220537 62 0 0.0 0.0 0.04 0.44 0.44 95 1014.1
20260506220047 62 0 0.0 0.0 0.04 0.43 0.43 95 1014.0
20260506215539 62 0 0.0 0.0 0.04 0.43 0.43 95 1014.2
20260506215034 63 0 0.0 0.0 0.04 0.43 0.43 95 1014.1
20260506214547 63 0 0.0 0.0 0.04 0.42 0.42 95 1014.1
20260506214035 63 0 0.0 0.0 0.04 0.42 0.42 95 1013.8
20260506213534 62 0 0.0 0.0 0.04 0.42 0.42 95 1013.6
20260506213102 62 0 0.0 0.0 0.04 0.41 0.41 95 1013.8
20260506212534 62 0 0.0 0.0 0.04 0.41 0.41 95 1014.1
20260506212038 62 0 0.0 0.0 0.04 0.41 0.41 95 1014.1
20260506211602 62 0 0.0 0.0 0.04 0.40 0.40 95 1014.0
20260506211034 62 0 0.0 2.0 0.04 0.40 0.40 95 1013.7
20260506210534 62 0 0.0 2.0 0.05 0.40 0.40 95 1014.0
20260506210047 62 0 0.0 0.0 0.04 0.39 0.39 95 1013.9
20260506205533 63 0 0.0 0.0 0.04 0.39 0.39 95 1014.2
20260506205033 62 0 0.0 0.0 0.05 0.39 0.39 95 1014.9
20260506204554 63 0 0.0 0.0 0.04 0.38 0.38 95 1014.7
20260506204032 63 0 0.0 0.0 0.04 0.38 0.38 95 1014.2
20260506203532 63 0 0.0 1.0 0.05 0.38 0.38 94 1014.7
20260506203048 63 0 0.0 1.0 0.04 0.37 0.37 94 1014.1
20260506202536 63 0 0.0 2.0 0.04 0.37 0.37 94 1014.5
20260506202037 63 0 0.0 2.0 0.04 0.37 0.37 94 1014.6
20260506201557 63 0 0.0 2.0 0.04 0.36 0.36 94 1014.6
20260506201034 63 0 0.0 2.0 0.04 0.36 0.36 94 1015.0
20260506200533 63 0 0.0 2.0 0.03 0.35 0.35 94 1014.7
20260506200044 63 347 1.0 2.0 0.04 0.35 0.35 94 1014.3
20260506195533 63 0 0.0 2.0 0.04 0.35 0.35 94 1015.1
20260506195033 63 0 0.0 0.0 0.03 0.34 0.34 94 1015.0
20260506194603 64 0 0.0 0.0 0.03 0.34 0.34 94 1014.8
20260506194033 64 0 0.0 0.0 0.04 0.34 0.34 94 1015.1
20260506193533 64 0 0.0 0.0 0.03 0.33 0.33 94 1015.1
20260506193041 64 0 0.0 0.0 0.03 0.33 0.33 94 1015.3
20260506192533 64 0 0.0 0.0 0.04 0.33 0.33 93 1015.4
20260506192034 64 0 0.0 0.0 0.03 0.32 0.32 94 1015.2
20260506191549 64 0 0.0 0.0 0.03 0.32 0.32 94 1015.3
20260506191034 64 0 0.0 0.0 0.03 0.32 0.32 93 1015.3
20260506190533 64 0 0.0 0.0 0.04 0.32 0.32 94 1015.3
20260506190046 64 0 0.0 0.0 0.03 0.31 0.31 93 1015.6
20260506185533 64 0 0.0 0.0 0.03 0.31 0.31 93 1015.7
20260506185036 64 0 0.0 0.0 0.04 0.31 0.31 93 1015.7
20260506184605 64 0 0.0 0.0 0.04 0.31 0.31 93 1015.8
20260506184034 64 0 0.0 0.0 0.03 0.30 0.30 93 1015.8
20260506183534 64 0 0.0 0.0 0.04 0.30 0.30 94 1015.7
20260506183057 64 0 0.0 0.0 0.04 0.30 0.30 94 1015.7
20260506182533 64 0 0.0 0.0 0.03 0.29 0.29 94 1015.8
20260506182035 63 0 0.0 0.0 0.04 0.29 0.29 93 1015.8
20260506181543 63 0 0.0 0.0 0.04 0.29 0.29 94 1015.8
20260506181033 63 0 0.0 0.0 0.05 0.29 0.29 94 1015.8
20260506180535 63 0 0.0 0.0 0.04 0.28 0.28 94 1015.9
20260506180050 63 0 0.0 0.0 0.05 0.28 0.28 94 1015.8
20260506175535 63 0 0.0 3.0 0.05 0.28 0.28 94 1015.8
20260506175033 63 0 0.0 3.0 0.04 0.27 0.27 94 1015.8
20260506174546 63 288 0.0 2.0 0.05 0.27 0.27 94 1015.8
20260506174035 63 0 0.0 2.0 0.05 0.27 0.27 94 1015.6
20260506173534 63 0 0.0 2.0 0.04 0.26 0.26 95 1015.6
20260506173053 63 0 0.0 0.0 0.05 0.26 0.26 95 1015.5
20260506172537 63 0 0.0 0.0 0.04 0.25 0.25 95 1015.4
20260506172033 62 0 0.0 0.0 0.05 0.25 0.25 95 1015.5
20260506171543 62 0 0.0 0.0 0.05 0.25 0.25 95 1015.3
20260506171038 62 0 0.0 0.0 0.05 0.24 0.24 95 1015.4
20260506170535 62 0 0.0 1.0 0.05 0.24 0.24 95 1015.3
20260506170104 62 0 0.0 2.0 0.05 0.23 0.23 95 1015.2
20260506165535 62 0 0.0 2.0 0.05 0.23 0.23 95 1015.3
20260506165035 62 0 0.0 3.0 0.06 0.23 0.23 95 1015.3
20260506164545 62 0 0.0 3.0 0.05 0.22 0.22 95 1015.1
20260506164036 62 0 0.0 2.0 0.06 0.22 0.22 95 1015.0
20260506163535 62 0 0.0 1.0 0.07 0.22 0.22 95 1015.1
20260506163055 62 0 0.0 1.0 0.06 0.21 0.21 95 1015.2
20260506162533 61 0 0.0 4.0 0.07 0.21 0.21 95 1015.5
20260506162036 61 0 0.0 4.0 0.07 0.20 0.20 95 1016.1
20260506161547 61 0 0.0 4.0 0.07 0.20 0.20 95 1016.4
20260506161033 60 254 0.0 4.0 0.07 0.19 0.19 95 1016.8
20260506160533 60 0 1.0 3.0 0.08 0.19 0.19 95 1016.8
20260506160054 60 0 0.0 3.0 0.07 0.18 0.18 94 1017.0
20260506155534 60 265 1.0 3.0 0.08 0.18 0.18 95 1016.9
20260506155033 60 0 0.0 0.0 0.08 0.17 0.17 95 1016.8
20260506154544 60 0 0.0 3.0 0.08 0.17 0.17 94 1016.9
20260506154033 60 0 0.0 3.0 0.08 0.16 0.16 94 1016.9
20260506153533 60 219 0.0 5.0 0.08 0.15 0.15 94 1017.1
20260506153046 60 0 0.0 5.0 0.08 0.15 0.15 94 1016.8
20260506152534 60 166 0.0 2.0 0.08 0.14 0.14 94 1016.7
20260506152035 60 0 0.0 3.0 0.07 0.13 0.13 94 1016.7
20260506151546 60 0 0.0 4.0 0.08 0.13 0.13 94 1016.9
20260506151033 60 261 1.0 4.0 0.07 0.12 0.12 94 1017.2
20260506150533 60 284 0.0 3.0 0.07 0.11 0.11 94 1016.6
20260506150044 60 0 0.0 2.0 0.07 0.11 0.11 94 1016.1
20260506145537 60 287 0.0 2.0 0.06 0.10 0.10 94 1016.1
20260506145034 60 0 0.0 3.0 0.05 0.09 0.09 94 1016.1
20260506144555 60 0 1.0 3.0 0.05 0.09 0.09 94 1015.8
20260506144033 60 0 0.0 1.0 0.04 0.08 0.08 93 1015.7
20260506143533 60 0 0.0 1.0 0.03 0.07 0.07 93 1015.4
20260506143041 60 0 0.0 1.0 0.03 0.07 0.07 94 1015.1
20260506142532 60 0 0.0 0.0 0.02 0.06 0.06 94 1015.1
20260506142034 60 0 0.0 2.0 0.02 0.06 0.06 94 1015.3
20260506141544 60 0 0.0 2.0 0.01 0.05 0.05 93 1015.0
20260506141035 60 292 0.0 2.0 0.01 0.05 0.05 93 1015.0
20260506140536 60 290 0.0 1.0 0.00 0.04 0.04 93 1015.3
20260506140046 60 0 0.0 1.0 0.00 0.04 0.04 93 1015.5
20260506135532 60 0 0.0 1.0 0.01 0.04 0.04 93 1015.2
20260506135032 60 0 0.0 1.0 0.01 0.04 0.04 93 1015.2
20260506134549 60 0 0.0 1.0 0.01 0.04 0.04 93 1014.8
20260506134035 60 0 0.0 1.0 0.01 0.04 0.04 93 1014.7
20260506133533 60 0 0.0 1.0 0.02 0.04 0.04 93 1014.7
20260506133052 60 0 0.0 2.0 0.02 0.04 0.04 93 1014.8
20260506132533 60 0 0.0 2.0 0.03 0.04 0.04 93 1015.0
20260506132037 60 0 0.0 0.0 0.04 0.04 0.04 93 1014.9
20260506131552 60 0 0.0 2.0 0.04 0.04 0.04 93 1014.6
20260506131034 60 0 0.0 2.0 0.04 0.04 0.04 92 1014.4
20260506130534 60 0 0.0 1.0 0.04 0.04 0.04 92 1014.7
20260506130057 60 0 0.0 1.0 0.04 0.04 0.04 92 1014.8
20260506125532 60 0 0.0 0.0 0.03 0.03 0.03 92 1015.2
20260506125034 60 0 0.0 0.0 0.03 0.03 0.03 92 1014.9
20260506124545 60 0 0.0 1.0 0.03 0.03 0.03 92 1014.8
20260506124032 60 0 0.0 1.0 0.03 0.03 0.03 92 1014.7
20260506123532 60 0 0.0 1.0 0.02 0.02 0.02 91 1014.8
20260506123045 60 0 0.0 1.0 0.02 0.02 0.02 91 1015.0
20260506122534 60 0 0.0 1.0 0.01 0.01 0.01 91 1014.6
20260506122033 60 0 0.0 1.0 0.00 0.00 0.00 90 1015.0
20260506121552 60 0 0.0 1.0 0.00 0.00 0.00 90 1014.8
20260506121033 60 0 0.0 1.0 0.00 0.00 0.00 90 1014.8
20260506120533 60 0 0.0 1.0 0.00 0.00 0.00 90 1014.7
20260506120053 60 0 0.0 1.0 0.00 0.00 0.00 89 1014.6
20260506115534 60 290 0.0 1.0 0.00 0.00 0.00 89 1014.6
20260506115034 60 0 0.0 1.0 0.00 0.00 0.00 89 1014.7
20260506114545 60 0 0.0 1.0 0.00 0.00 0.00 88 1014.4
20260506114032 60 0 0.0 1.0 0.00 0.00 0.00 88 1014.5
20260506113535 60 0 0.0 2.0 0.00 0.00 0.00 87 1014.5
20260506113044 60 0 0.0 2.0 0.00 0.00 0.00 86 1014.4
20260506112534 60 0 0.0 2.0 0.00 0.00 0.00 86 1014.3
20260506112033 60 0 0.0 2.0 0.00 0.00 0.00 85 1014.0
20260506111546 60 0 0.0 2.0 0.00 0.00 0.00 84 1014.4
20260506111033 60 292 0.0 2.0 0.00 0.00 0.00 84 1014.2
20260506110535 60 290 0.0 2.0 0.00 0.00 0.00 83 1014.4
20260506110051 60 0 0.0 1.0 0.00 0.00 0.00 83 1014.5
20260506105533 60 0 0.0 1.0 0.00 0.00 0.00 82 1014.5
20260506105033 60 0 0.0 1.0 0.00 0.00 0.00 81 1014.6
20260506104550 60 0 0.0 0.0 0.00 0.00 0.00 80 1014.6
20260506104034 60 0 0.0 1.0 0.00 0.00 0.00 79 1014.3
20260506103537 60 0 0.0 1.0 0.00 0.00 0.00 79 1014.4
20260506103052 60 0 0.0 1.0 0.00 0.00 0.00 79 1014.2
20260506102535 60 0 0.0 0.0 0.00 0.00 0.00 79 1014.0
20260506102034 60 0 0.0 0.0 0.00 0.00 0.00 78 1013.9
20260506101549 60 0 0.0 0.0 0.00 0.00 0.00 79 1013.7
20260506101033 60 0 0.0 2.0 0.00 0.00 0.00 79 1013.7
20260506100535 60 0 0.0 2.0 0.00 0.00 0.00 78 1013.7
20260506100049 60 290 0.0 1.0 0.00 0.00 0.00 79 1013.5
20260506095533 60 0 0.0 1.0 0.00 0.00 0.00 79 1013.5
20260506095033 60 0 0.0 2.0 0.00 0.00 0.00 79 1013.6
20260506094551 61 0 0.0 2.0 0.00 0.00 0.00 78 1013.5
20260506094034 61 0 0.0 0.0 0.00 0.00 0.00 78 1013.6
20260506093533 61 0 0.0 0.0 0.00 0.00 0.00 78 1013.7
20260506093049 61 0 0.0 0.0 0.00 0.00 0.00 77 1013.4
20260506092535 61 0 0.0 0.0 0.00 0.00 0.00 77 1013.4
20260506092035 62 0 0.0 0.0 0.00 0.00 0.00 77 1013.4
20260506091549 62 0 0.0 0.0 0.00 0.00 0.00 76 1013.4
20260506091035 62 0 0.0 0.0 0.00 0.00 0.00 75 1013.4
20260506090534 61 0 0.0 2.0 0.00 0.00 0.00 75 1013.3
20260506090056 61 0 0.0 2.0 0.00 0.00 0.00 75 1013.0
20260506085535 61 290 0.0 2.0 0.00 0.00 0.00 76 1013.1
20260506085034 61 0 0.0 2.0 0.00 0.00 0.00 75 1013.2
20260506084609 61 0 0.0 2.0 0.00 0.00 0.00 74 1013.4
20260506084035 60 0 0.0 0.0 0.00 0.00 0.00 75 1013.4
20260506083533 60 0 0.0 0.0 0.00 0.00 0.00 75 1013.6
20260506083047 60 0 0.0 0.0 0.00 0.00 0.00 76 1013.5
20260506082533 60 0 0.0 0.0 0.00 0.00 0.00 76 1013.7
20260506082034 61 0 0.0 0.0 0.00 0.00 0.00 77 1013.8
20260506081546 61 0 0.0 0.0 0.00 0.00 0.00 75 1013.8
20260506081035 61 0 0.0 0.0 0.00 0.00 0.00 76 1013.5
20260506080535 61 0 0.0 0.0 0.00 0.00 0.00 76 1013.6
20260506073052 61 0 0.0 0.0 0.00 0.00 0.00 73 1013.8
20260506072534 61 0 0.0 1.0 0.00 0.00 0.00 74 1013.9
20260506072034 61 0 0.0 1.0 0.00 0.00 0.00 73 1013.8
20260506071548 61 0 0.0 1.0 0.00 0.00 0.00 74 1013.8
20260506071039 61 0 0.0 0.0 0.00 0.00 0.00 76 1014.0
20260506070535 61 0 0.0 0.0 0.00 0.00 0.00 75 1014.1
20260506062033 62 0 0.0 0.0 0.00 0.00 0.00 75 1014.4
20260506061555 62 0 0.0 0.0 0.00 0.00 0.00 74 1014.5
20260506061035 62 0 0.0 1.0 0.00 0.00 0.00 73 1014.6
20260506060533 62 0 0.0 1.0 0.00 0.00 0.00 70 1014.5
20260506051032 63 0 0.0 2.0 0.00 0.00 0.00 70 1014.7
20260506050534 63 0 0.0 1.0 0.00 0.00 0.00 67 1014.7
20260506050108 63 287 0.0 2.0 0.00 0.00 0.00 67 1014.8
20260506045033 63 287 0.0 2.0 0.00 0.00 0.00 68 1014.6
20260506044552 63 0 0.0 2.0 0.00 0.00 0.00 71 1014.6
20260506044033 63 287 0.0 2.0 0.00 0.00 0.00 70 1014.6
20260506043533 63 0 0.0 2.0 0.00 0.00 0.00 69 1014.7
20260506043049 63 287 0.0 2.0 0.00 0.00 0.00 70 1014.6
20260506042533 63 0 0.0 1.0 0.00 0.00 0.00 69 1014.7
20260506042033 64 287 0.0 2.0 0.00 0.00 0.00 67 1015.0
20260506041552 64 0 0.0 2.0 0.00 0.00 0.00 67 1015.0
20260506041032 64 0 0.0 2.0 0.00 0.00 0.00 63 1015.1
20260506040532 64 0 0.0 2.0 0.00 0.00 0.00 63 1015.1
20260506040101 63 289 0.0 2.0 0.00 0.00 0.00 64 1015.0
20260506035532 63 288 0.0 2.0 0.00 0.00 0.00 64 1014.9
20260506035035 63 0 0.0 2.0 0.00 0.00 0.00 64 1014.8
20260506034551 63 291 0.0 2.0 0.00 0.00 0.00 65 1015.0
20260506034033 62 0 0.0 3.0 0.00 0.00 0.00 68 1015.1
20260506033533 62 0 0.0 3.0 0.00 0.00 0.00 68 1015.1
20260506033051 62 292 0.0 2.0 0.00 0.00 0.00 68 1015.1
20260506032535 62 279 0.0 2.0 0.00 0.00 0.00 69 1015.2
20260506032033 61 0 0.0 2.0 0.00 0.00 0.00 68 1015.0
20260506031552 62 0 0.0 3.0 0.00 0.00 0.00 69 1015.0
20260506031032 62 264 0.0 3.0 0.00 0.00 0.00 68 1015.1
20260506030532 61 0 0.0 0.0 0.00 0.00 0.00 68 1014.9
20260506030054 61 0 0.0 0.0 0.00 0.00 0.00 68 1014.7
20260506025532 61 0 0.0 0.0 0.00 0.00 0.00 68 1014.9
20260506025032 61 0 0.0 0.0 0.00 0.00 0.00 68 1014.9
20260506024554 61 0 0.0 0.0 0.00 0.00 0.00 68 1015.2
20260506024034 61 0 0.0 0.0 0.00 0.00 0.00 67 1015.2
20260506023541 61 0 0.0 0.0 0.00 0.00 0.00 67 1015.2
20260506023046 61 0 0.0 0.0 0.00 0.00 0.00 66 1015.1
20260506022535 61 0 0.0 0.0 0.00 0.00 0.00 66 1014.9
20260506022035 61 0 0.0 0.0 0.00 0.00 0.00 66 1015.0
20260506021600 61 0 0.0 0.0 0.00 0.00 0.00 65 1014.8
20260506021035 61 0 0.0 0.0 0.00 0.00 0.00 65 1014.8